OpenBCM V1.13 (Linux)

Packet Radio Mailbox

DB0FHN

[JN59NK Nuernberg]

 Login: GUEST





  
LU1HVK > KEP      21.09.19 08:00l 244 Lines 12026 Bytes #999 (0) @ WW
BID : 32137_LU1HVK
Read: DF7EAV DJ6UX GUEST
Subj: TLE 21 09
Path: DB0FHN<DB0FFL<OE2XZR<OE1XAB<HG8LXL<XE1FH<VE2PKT<N3HYM<IV3BVK<IK5FKA<
      LU9HGS<LU1HVK
Sent: 190921/0522Z 32137@LU1HVK.2594.CBA.ARG.SA LinBPQ6.0.18

                         _    _   _ _ _   ___     ___  __
                        | |  | | | / | | | \ \   / / |/ /
                        | |  | | | | | |_| |\ \ / /| ' /
                        | |__| |_| | |  _  | \ V / | . \
                        |_____\___/|_|_| |_|  \_/  |_|\_\

     BBS/NODO - CORDOBA (LEONES-FF87UH) - LU1HVK-4 NODO - LU1HVK-3 APRS

+----------------------------------------------------------------------------+
OSCAR 7
1  7530U 74089B   19263.15479466 -.00000035  00000-0  60012-4 0  9998
2  7530 101.7549 229.8923 0012096 165.0393 262.1712 12.53639785 52236
OSCAR 11 (UoSAT 2)
1 14781U 84021B   19263.14323476  .00000016  00000-0  81079-5 0  9994
2 14781  97.6070 283.4196 0008962  22.7282 337.4328 14.83106724912618
OSCAR 19 (LUSAT)
1 20442U 90005G   19263.44673738  .00000001  00000-0  16651-4 0  9993
2 20442  98.6545 205.3163 0010810 230.0512 129.9722 14.32932976549808
EYESAT A
1 22825U 93061C   19262.90525682 -.00000012 +00000-0 +13275-4 0  9991
2 22825 098.9107 253.7002 0009512 087.7470 272.4800 14.30066540355009
ITAMSAT
1 22826U 93061D   19263.86450340  .00000000  00000-0  17880-4 0  9998
2 22826  98.9048 254.6617 0010008  75.2375 284.9915 14.30400650355610
RADIO ROSTO
1 23439U 94085A   19263.52795224 -.00000052  00000-0 -27269-3 0  9992
2 23439  64.8189 324.3819 0145435  95.0077 266.7465 11.27568193 18636
JAS 2
1 24278U 96046B   19263.53315385  .00000012  00000-0  49440-4 0  9990
2 24278  98.5517  44.2643 0350283 356.9047   2.9926 13.53093010140499
TECHSAT 1B
1 25397U 98043D   19263.16329311 -.00000010  00000-0  14862-4 0  9994
2 25397  98.6938 202.1971 0002264 107.5258 252.6168 14.23670659101178
ISS (ZARYA)
1 25544U 98067A   19264.01075828  .00000532  00000-0  17317-4 0  9996
2 25544  51.6439 246.0233 0007426  69.0670  34.7722 15.50097739190121
PCSAT
1 26931U 01043C   19263.11565676 -.00000028  00000-0  20983-4 0  9994
2 26931  67.0502 122.6018 0007447 271.1027  88.9221 14.30552660938333
SAUDISAT 1C
1 27607U 02058C   19263.82082584 -.00000056  00000-0  13105-4 0  9991
2 27607  64.5541 121.8080 0076765 238.2794 121.0810 14.75572124900926
CUTE-1
1 27844U 03031E   19262.94232227 +.00000030 +00000-0 +33052-4 0  9993
2 27844 098.6853 269.7651 0010851 118.2475 241.9799 14.22194877841509
CUBESAT XI 4
1 27848U 03031J   19263.45366623  .00000018  00000-0  27758-4 0  9994
2 27848  98.6930 270.7885 0010623 127.4339 232.7806 14.21788032841461
MOZHAYETS 4
1 27939U 03042A   19263.84618202  .00000078  00000-0  22524-4 0  9995
2 27939  98.0546  37.8973 0013736 125.9388 234.3094 14.66803201854347
CUBESAT XI 5
1 28895U 05043F   19263.36932813  .00000103  00000-0  28606-4 0  9990
2 28895  97.9727  42.9605 0017917  58.8001 301.4956 14.63691320741182
CUTE-1.7+APD II
1 32785U 08021C   19263.13678465  .00000154  00000-0  22267-4 0  9990
2 32785  97.5545 258.4651 0012024 318.6418  41.3888 14.88345055617585
DELFI C3
1 32789U 08021G   19263.10581431  .00000504  00000-0  37540-4 0  9996
2 32789  97.4559 309.9176 0012818 159.0088 201.1669 15.07112244621030
SEEDS
1 32791U 08021J   19263.53456761  .00000181  00000-0  23694-4 0  9999
2 32791  97.5310 264.9060 0011797 287.8676  72.1256 14.90869919618098
YUBELEINY
1 32953U 08025A   19263.73018180  .00000020  00000-0  75656-4 0  9991
2 32953  82.4982  86.2794 0018743 285.5662  74.3346 12.43091260513992
PRISM (HITOMI)
1 33493U 09002B   19263.39323962  .00000438  00000-0  43866-4 0  9997
2 33493  98.1197 187.8997 0014072 230.2951 129.7029 14.96728515579160
KKS-1 (KISEKI)
1 33499U 09002H   19263.80399779  .00000034  00000-0  13019-4 0  9997
2 33499  98.3443 105.4895 0007874 267.2132  92.8175 14.75462543573101
SWISSCUBE
1 35932U 09051B   19263.03906591  .00000103  00000-0  34249-4 0  9991
2 35932  98.5972  71.7952 0006665 234.2320 125.8257 14.56309792530367
BEESAT
1 35933U 09051C   19263.10512957  .00000069  00000-0  26641-4 0  9997
2 35933  98.5992  73.6616 0004721 248.0844 111.9851 14.56395637530485
ITUPSAT 1
1 35935U 09051E   19263.42298629  .00000056  00000-0  24144-4 0  9993
2 35935  98.6102  74.2200 0007060 245.6499 114.3961 14.55552180530278
XIWANG-1 (HOPE-1)
1 36122U 09072B   19263.75350160 -.00000044  00000-0 -56197-5 0  9993
2 36122 100.0761 261.7234 0007851 124.9966 235.1885 13.16350987469255
TISAT 1
1 36799U 10035E   19263.09148961  .00000161  00000-0  22390-4 0  9990
2 36799  98.1679  58.4106 0013261 135.5204 224.7080 14.91156230498683
JUGNU
1 37839U 11058B   19262.90598084 +.00000308 +00000-0 +22221-4 0  9992
2 37839 019.9607 129.5108 0018878 274.5611 160.0468 14.12658742410345
SRMSAT
1 37841U 11058D   19263.17311413  .00000306  00000-0  23214-4 0  9995
2 37841  19.9711 186.6011 0012019 143.3565 359.5818 14.10639054409900
M-CUBED/EXP-1 PRIME
1 37855U 11061F   19262.77550495  .00000493  00000-0  32664-4 0  9990
2 37855 101.7122 206.1530 0173087 160.7792 200.0058 15.05582815430786
HORYU 2
1 38340U 12025D   19262.73761681 +.00000116 +00000-0 +24991-4 0  9994
2 38340 098.3213 304.0825 0011503 181.3706 178.7473 14.75748990384471
STRAND 1
1 39090U 13009E   19263.63201845  .00000015  00000-0  20350-4 0  9994
2 39090  98.4802 107.9796 0009536  16.9405 343.2097 14.35097197343869
SOMP
1 39134U 13015E   19263.82578045  .00000825  00000-0  46732-4 0  9991
2 39134  64.8621  75.4231 0035702 288.7636  70.9619 15.20321381354907
BEESAT 3
1 39135U 13015F   19263.84965771  .00000412  00000-0  30203-4 0  9998
2 39135  64.8676  94.9812 0033632 298.3724  61.4012 15.17600404354537
BEESAT 2
1 39136U 13015G   19262.99959695  .00000518  00000-0  35949-4 0  9991
2 39136  64.8682 101.8127 0025275 303.5981  56.2732 15.17019363354326
CUBEBUG 1
1 39153U 13018D   19263.76996900  .00000141  00000-0  25302-4 0  9993
2 39153  97.9806   1.3787 0015639 252.0644 107.8863 14.80595490345735
ZACUBE
1 39417U 13066B   19263.00205025  .00000137  00000-0  23501-4 0  9991
2 39417  97.5628 271.2607 0060509  88.1419 272.6723 14.81148084314858
TRITON 1
1 39427U 13066M   19263.45851491  .00000142  00000-0  30864-4 0  9991
2 39427  97.6869 235.0937 0112650 224.7976 134.4093 14.67879205312091
GOMX 1
1 39430U 13066Q   19263.76735275  .00000144  00000-0  35363-4 0  9991
2 39430  97.7549 214.1633 0150745 318.1561  40.8188 14.59285518310325
HUMSAT D
1 39433U 13066T   19263.08980021  .00000229  00000-0  27605-4 0  9994
2 39433  97.5451 306.7378 0030399 351.9916   8.0814 14.92249986317003
CUBEBUG 2
1 39440U 13066AA  19263.85496910  .00000140  00000-0  26347-4 0  9990
2 39440  97.6079 256.7585 0081205 138.2430 222.5016 14.75885861313867
FUNCUBE 1
1 39444U 13066AE  19262.74836253  .00000187  00000-0  29177-4 0  9994
2 39444  97.5602 273.0552 0059625  82.5984 278.2001 14.81973705313712
UWE-3
1 39446U 13066AG  19262.81800853 +.00000145 +00000-0 +25712-4 0  9996
2 39446 097.5845 262.8999 0071413 115.6154 245.2459 14.78420530312438
SPROUT
1 39770U 14029E   19263.81463964  .00000686  00000-0  81860-4 0  9991
2 39770  97.8884   6.5187 0009374 131.1966 229.0063 14.87425958288822
UNISAT 6
1 40012U 14033C   19263.15236917  .00000109  00000-0  23558-4 0  9990
2 40012  97.7444 125.6787 0058796 154.9991 205.4086 14.74006900282450
DUCHIFAT 1
1 40021U 14033M   19263.78889346  .00000253  00000-0  31576-4 0  9998
2 40021  97.9231 188.6930 0014367  98.2208 262.0640 14.90682455285565
QB50P1
1 40025U 14033R   19263.78328209  .00000209  00000-0  28153-4 0  9996
2 40025  97.9029 183.3057 0013800 107.5263 252.7463 14.88982621285320
CHUBUSAT 1
1 40300U 14070C   19263.80552963  .00000426  00000-0  21451-4 0  9997
2 40300  97.3197 335.5791 0021227  83.8960  37.0977 15.22171074270334
NUDT-PHONESAT
1 40900U 15049B   19263.79954683  .00001499  00000-0  66598-4 0  9995
2 40900  97.4366 272.2224 0011664 209.3175 237.9522 15.23042709221981
ZDPS 2A
1 40901U 15049C   19263.68994926  .00000558  00000-0  30873-4 0  9990
2 40901  97.4612 268.1655 0011849 232.9976 217.3071 15.17832301221499
ZDPS 2B
1 40902U 15049D   19263.79371227  .00000936  00000-0  49722-4 0  9999
2 40902  97.4563 265.6889 0011971 230.3599 231.5059 15.17685909221488
XW-2A
1 40903U 15049E   19263.74906635  .00001325  00000-0  32921-4 0  9998
2 40903  97.3283 307.0112 0013903 158.5468 307.6084 15.42093671224742
KAITUO 1A
1 40904U 15049F   19263.77824532  .00000212  00000-0  14732-4 0  9991
2 40904  97.4698 264.1913 0013080 238.8732 301.3222 15.15430674221243
OBJECT G
1 40905U 15049G   19263.77600156  .00000199  00000-0  14406-4 0  9998
2 40905  97.4743 261.6428 0014247 234.9181 211.1458 15.14343103221113
XW-2C
1 40906U 15049H   19263.80682539  .00000557  00000-0  32636-4 0  9991
2 40906  97.4706 264.3418 0013363 230.0270 207.5751 15.15752985221259
XW-2D
1 40907U 15049J   19263.70849551  .00000344  00000-0  21387-4 0  9995
2 40907  97.4686 263.9256 0012823 227.4026 220.4046 15.15945671221258
LILACSAT 2
1 40908U 15049K   19263.76829861  .00000332  00000-0  21962-4 0  9990
2 40908  97.4818 262.7128 0014508 235.0170 119.0010 15.13849603221034
XW-2F
1 40910U 15049M   19263.71862818  .00000652  00000-0  35952-4 0  9996
2 40910  97.4644 266.0734 0013585 218.9467 261.5842 15.17418809221273
XW-2B
1 40911U 15049N   19263.80951721  .00000507  00000-0  29933-4 0  9990
2 40911  97.4708 264.6908 0012557 227.5639 209.2660 15.15874935221166
KAITUO 1B
1 40912U 15049P   19263.73195405  .00000829  00000-0  41904-4 0  9991
2 40912  97.4506 269.8758 0014019 198.5677 248.7052 15.19745793221590
TIANWANG 1C (TW-1C)
1 40926U 15051B   19263.90355788  .00009929  00000-0  13694-3 0  9994
2 40926  97.1264 310.0058 0008456  35.0777  70.1800 15.57360191224812
TIANWANG 1B (TW-1B)
1 40927U 15051C   19263.82866313  .00009110  00000-0  13382-3 0  9993
2 40927  97.1293 309.1106 0009296  42.0817  45.9719 15.55669814224646
